Wind_Speed
32 31 30 29 29 29 28 27 26 25 24 23 22 22 21 21 20 20 20 20 21 20 21 21 21 21 22 22 23 23 24 24 24 25 25 25 26 26 27 27 27 28 28
32 32 31 31 30 30 29 29 28 27 26 25 24 23 23 23 22 22 22 22 22 22 23 23 23 24 24 24 25 25 25 26 26 26 26 27 28 28 28 29 29 29 29
34 32 33 33 31 31 31 30 30 29 28 27 26 25 25 25 24 24 24 24 24 24 25 25 25 26 26 26 27 27 27 28 28 28 28 29 29 30 30 31 31 31 31
35 34 34 34 33 32 32 32 31 30 29 28 28 27 27 26 26 26 25 26 26 26 27 27 27 28 28 28 29 29 29 30 30 30 31 31 32 32 33 33 33 33 33
37 36 34 34 34 33 33 33 32 32 31 30 30 29 29 28 28 28 28 28 28 29 29 29 29 30 30 30 31 31 31 32 32 33 33 34 34 35 35 35 35 35 35
38 38 36 35 34 34 34 34 34 34 33 31 31 31 30 30 30 30 30 30 30 31 31 31 32 32 32 33 33 34 34 34 35 35 35 36 36 37 37 37 37 37 37
40 40 40 38 36 36 35 35 36 35 35 34 33 33 33 33 33 33 32 32 33 33 33 33 33 34 34 35 35 36 36 37 37 37 37 38 38 39 39 39 39 39 39
41 40 40 39 38 36 35 36 36 36 36 36 35 34 34 34 35 34 34 34 35 35 35 35 36 36 37 37 37 38 38 39 39 39 40 40 40 40 41 41 42 42 42
40 41 41 39 38 37 37 37 37 37 38 38 37 36 36 36 36 37 37 37 37 37 37 38 38 38 39 39 40 40 41 41 42 42 42 42 43 43 43 43 44 45 45
38 40 40 40 39 38 39 39 39 39 39 40 40 39 39 39 38 39 39 39 39 40 39 40 40 41 40 41 42 42 43 43 44 44 45 45 46 46 46 46 46 47 48
38 40 40 40 40 40 39 39 39 39 40 41 41 41 41 41 41 41 41 42 42 42 42 42 42 43 43 43 44 44 45 45 46 47 47 48 48 48 48 49 49 50 50
36 37 39 40 40 40 40 39 39 40 41 43 44 44 44 43 43 43 43 43 43 44 44 44 45 45 46 45 46 47 47 48 48 49 49 50 50 50 50 51 52 52 53
36 37 38 39 40 40 40 40 41 41 42 43 44 46 47 47 46 45 45 45 45 45 45 46 47 47 47 47 48 49 49 50 50 51 51 52 52 52 53 54 54 55 55
36 37 37 38 39 40 40 41 42 41 42 44 45 46 48 49 48 48 47 46 47 47 47 48 48 49 49 49 50 51 51 52 53 53 54 55 55 55 56 57 57 57 58
36 37 37 39 40 41 42 42 42 43 44 44 45 45 46 47 47 48 48 48 48 48 48 49 49 50 51 51 51 52 54 54 55 55 56 57 57 58 58 58 59 59 60
36 37 38 39 40 40 41 41 42 44 43 44 45 45 47 48 48 48 49 49 49 49 49 50 51 51 52 54 54 54 55 55 56 57 57 58 59 60 60 60 61 61 62
37 38 39 40 40 41 41 42 42 42 44 45 46 46 47 47 49 49 50 50 50 50 50 50 51 52 53 54 55 55 56 56 57 58 59 60 60 61 62 62 63 63 64
37 39 39 39 40 42 43 44 44 44 45 46 47 47 47 48 49 50 50 50 51 51 51 52 53 54 54 55 56 56 57 57 58 59 60 60 61 62 62 63 64 65 66
37 38 39 40 41 42 44 45 45 46 46 46 46 47 48 49 49 50 50 51 52 53 53 53 53 54 55 57 57 58 58 58 59 60 61 61 62 63 63 64 65 66 67
39 39 40 41 42 43 44 44 45 47 47 46 46 47 48 49 49 51 52 53 53 54 54 54 53 54 55 56 57 58 59 59 60 60 61 62 62 63 64 65 66 68 68
42 42 43 43 44 44 45 45 46 47 47 47 47 48 48 49 50 51 52 53 54 54 54 54 54 54 55 56 57 59 59 59 59 60 61 61 62 63 65 66 67 67 68
43 43 44 44 45 45 46 45 46 47 47 47 47 48 49 49 50 51 52 53 53 53 54 54 54 55 55 57 58 58 59 59 59 60 61 61 63 64 65 66 66 66 65
43 43 43 44 44 45 45 46 46 47 46 46 47 48 49 49 50 51 52 52 52 53 53 54 55 55 56 57 58 58 59 59 60 61 62 62 62 63 64 64 64 63 63
42 42 42 43 44 44 44 45 46 46 46 47 48 49 49 49 50 51 51 51 52 52 53 55 55 56 56 57 58 58 58 59 59 60 62 62 62 62 61 61 61 60 59
41 42 42 43 44 44 45 46 47 47 48 48 48 49 49 50 50 50 51 51 52 52 53 54 54 55 56 57 59 59 59 60 59 59 60 61 60 59 59 58 57 56 56
41 42 43 43 44 44 45 46 47 48 48 48 48 49 49 50 50 51 51 52 52 52 53 53 53 55 56 57 58 59 59 60 59 58 57 58 58 57 56 54 54 54 53
Wind_Direction
243 243 245 246 246 246 248 251 254 257 260 263 265 266 268 270 271 273 274 276 277 279 280 280 281 283 285 286 287 288 288 288 289 289 289 289 289 289 290 291 292 290 289
243 244 246 247 247 247 248 250 253 257 261 263 265 265 268 270 271 273 275 276 278 279 280 281 282 283 284 285 286 287 287 287 288 288 288 289 289 289 290 290 290 290 290
244 244 246 247 247 247 247 249 251 255 259 262 263 265 267 270 272 273 274 276 277 278 280 281 282 283 283 284 285 286 287 287 287 287 287 288 288 289 290 290 290 290 289
243 245 246 246 248 247 247 248 251 254 257 260 262 264 267 270 272 274 274 275 277 278 279 280 281 282 283 283 284 284 285 286 286 287 287 287 288 288 289 289 290 291 290
242 244 245 246 247 248 248 248 250 253 256 259 261 263 266 269 272 273 275 276 277 278 279 280 281 282 282 282 283 283 284 284 285 286 287 287 287 288 287 288 289 289 289
243 245 246 247 248 250 250 249 251 253 255 259 262 263 266 269 271 272 274 276 277 278 279 280 280 281 281 281 282 283 284 284 284 284 286 286 287 287 286 287 287 288 288
245 246 249 249 248 250 251 251 252 253 255 258 262 263 265 267 270 271 273 275 277 278 279 279 280 280 280 281 282 283 284 284 284 284 284 286 286 286 286 286 287 287 287
247 248 250 251 250 251 252 251 253 254 256 259 262 264 265 267 269 271 273 275 276 277 279 280 279 280 280 281 282 283 284 284 284 285 285 286 286 287 286 286 287 287 287
248 248 250 252 253 252 252 253 254 254 255 259 261 263 266 268 269 271 273 275 276 277 278 279 279 280 280 281 281 282 283 284 284 285 285 286 286 287 287 287 287 287 286
249 250 252 253 252 252 254 255 255 255 257 259 261 263 267 269 271 272 273 274 276 277 278 278 279 280 280 281 281 282 283 284 284 285 286 286 286 287 287 287 286 286 286
251 252 253 254 255 256 257 258 257 256 258 260 262 264 267 270 271 272 274 274 275 277 277 278 279 280 280 281 282 283 284 284 285 285 285 286 286 286 286 286 286 286 286
253 254 254 255 257 258 258 260 260 260 261 261 262 264 267 269 271 273 273 275 275 277 278 279 280 281 280 281 282 283 284 284 284 285 285 286 286 285 286 286 286 286 285
253 254 255 256 257 259 260 261 262 262 263 264 264 266 267 269 270 272 274 275 276 277 277 278 279 281 281 282 282 283 284 284 285 285 286 286 286 286 286 286 286 286 285
254 255 256 256 258 259 259 261 263 263 264 266 267 268 269 268 269 272 274 275 275 276 277 278 279 281 282 282 283 283 284 285 285 285 286 285 286 286 286 286 285 285 285
256 257 258 259 260 260 262 262 261 262 264 267 268 269 270 270 271 273 274 275 275 275 276 278 279 281 281 282 283 283 284 284 285 285 286 286 286 286 286 285 285 285 285
261 260 260 262 261 262 264 264 263 264 266 268 269 270 271 271 272 272 274 275 275 276 277 279 279 280 281 282 283 283 284 284 285 285 286 286 286 285 285 285 285 285 285
264 264 263 263 264 264 264 266 267 268 269 269 269 270 271 272 272 272 274 275 276 277 278 279 280 281 282 283 283 284 284 284 285 286 286 286 286 286 286 286 285 285 285
267 267 265 265 265 267 268 268 268 269 270 271 271 271 272 274 274 274 275 276 277 278 279 281 282 282 283 283 284 285 285 285 286 286 287 286 286 286 287 286 286 286 286
268 268 268 269 269 269 270 270 270 271 272 273 273 273 274 275 276 275 276 277 278 279 281 282 282 282 283 283 284 285 286 286 286 287 287 287 287 287 287 287 287 287 288
269 270 271 271 270 270 270 271 272 272 273 274 275 275 276 276 276 276 277 278 279 279 280 281 282 282 283 283 284 285 286 287 287 287 287 288 288 289 289 289 289 289 289
270 270 271 271 271 270 270 271 272 273 273 274 275 275 276 276 276 277 278 279 279 280 281 282 283 283 284 285 286 287 287 288 288 288 288 289 290 290 290 290 290 290 290
270 270 270 270 270 270 271 272 272 272 273 274 275 275 276 276 277 278 279 280 281 282 282 282 283 284 286 287 288 288 289 289 289 289 289 290 291 291 291 291 291 290 290
271 272 271 271 271 271 271 272 273 273 274 274 275 276 277 278 279 280 281 282 282 283 283 283 284 285 286 287 288 289 289 290 291 291 291 291 291 291 291 291 291 291 290
274 274 273 273 273 272 273 273 274 275 276 276 276 277 278 279 280 281 281 282 282 283 283 284 285 285 286 287 287 289 290 291 292 292 292 292 291 291 291 292 292 291 291
276 275 275 274 273 273 274 274 274 275 276 277 278 278 279 280 281 281 281 282 283 284 285 285 286 287 287 288 289 290 291 292 292 292 292 293 293 292 293 293 292 292 292
276 276 276 275 275 275 275 275 275 276 277 278 279 279 280 281 281 282 282 283 284 285 286 286 287 287 288 289 290 291 292 292 292 292 292 293 293 293 293 293 293 293 292
Height
5804 5807 5809 5811 5813 5815 5818 5819 5821 5822 5824 5824 5826 5826 5827 5827 5828 5828 5828 5828 5828 5827 5827 5827 5826 5826 5825 5825 5824 5823 5822 5821 5820 5820 5819 5818 5817 5815 5814 5814 5812 5812 5811
5797 5800 5803 5805 5806 5809 5811 5813 5815 5817 5818 5819 5820 5821 5822 5822 5823 5823 5823 5823 5823 5823 5822 5822 5821 5821 5820 5819 5819 5818 5817 5816 5815 5814 5813 5812 5811 5810 5809 5807 5806 5805 5804
5789 5792 5795 5798 5799 5802 5804 5807 5809 5811 5812 5813 5814 5815 5816 5816 5817 5817 5817 5817 5817 5817 5817 5816 5816 5815 5814 5814 5813 5812 5811 5810 5809 5808 5807 5806 5804 5803 5802 5801 5800 5799 5797
5782 5785 5788 5791 5793 5795 5797 5800 5802 5804 5805 5807 5808 5809 5809 5810 5811 5811 5811 5811 5811 5811 5810 5810 5809 5809 5808 5807 5806 5805 5804 5803 5802 5801 5800 5799 5798 5796 5795 5794 5793 5791 5790
5774 5777 5780 5783 5786 5788 5790 5792 5795 5797 5798 5800 5801 5802 5803 5804 5804 5804 5805 5805 5804 5804 5804 5803 5803 5802 5801 5800 5799 5798 5797 5796 5795 5794 5793 5792 5790 5789 5788 5786 5785 5784 5782
5766 5770 5772 5775 5778 5781 5783 5785 5787 5789 5791 5792 5794 5795 5796 5796 5797 5797 5797 5797 5797 5797 5797 5796 5795 5795 5794 5793 5792 5791 5790 5789 5787 5786 5785 5783 5782 5781 5779 5778 5777 5775 5774
5758 5762 5765 5768 5771 5773 5775 5777 5779 5781 5783 5785 5786 5787 5788 5789 5789 5790 5790 5790 5789 5789 5789 5788 5788 5787 5786 5785 5784 5783 5782 5780 5779 5778 5776 5775 5773 5772 5770 5769 5768 5766 5765
5750 5754 5757 5760 5762 5765 5767 5769 5771 5773 5775 5777 5778 5779 5780 5781 5781 5781 5781 5781 5781 5781 5780 5780 5779 5778 5777 5776 5775 5774 5773 5772 5770 5769 5767 5766 5764 5762 5761 5759 5758 5757 5755
5742 5746 5749 5752 5754 5757 5759 5761 5762 5765 5767 5768 5770 5771 5772 5772 5773 5773 5773 5773 5772 5772 5771 5771 5770 5769 5768 5767 5766 5765 5763 5762 5760 5759 5757 5756 5754 5752 5751 5749 5747 5746 5744
5734 5737 5740 5743 5746 5748 5750 5752 5754 5756 5758 5759 5761 5762 5763 5764 5764 5765 5764 5764 5763 5763 5762 5761 5760 5759 5758 5757 5756 5755 5753 5752 5750 5749 5747 5745 5743 5741 5740 5738 5736 5734 5732
5726 5729 5732 5735 5737 5739 5741 5743 5745 5747 5748 5750 5751 5752 5753 5754 5754 5755 5755 5755 5754 5753 5752 5751 5750 5749 5748 5747 5745 5744 5742 5741 5739 5737 5735 5733 5732 5730 5728 5726 5724 5722 5720
5718 5721 5723 5726 5728 5730 5732 5734 5736 5737 5739 5740 5741 5742 5743 5743 5743 5744 5744 5744 5743 5743 5742 5741 5739 5738 5737 5736 5734 5733 5731 5729 5727 5725 5723 5721 5719 5717 5715 5713 5711 5708 5706
5710 5712 5714 5717 5719 5721 5723 5725 5726 5727 5728 5730 5730 5731 5732 5732 5732 5732 5732 5732 5732 5731 5730 5729 5728 5727 5726 5724 5722 5721 5719 5717 5715 5713 5710 5708 5706 5704 5701 5699 5697 5694 5692
5701 5704 5706 5708 5710 5712 5713 5715 5716 5717 5718 5719 5719 5720 5720 5721 5721 5721 5721 5721 5720 5720 5718 5717 5716 5715 5713 5712 5710 5708 5706 5704 5702 5699 5697 5694 5692 5689 5687 5684 5681 5679 5676
5693 5695 5697 5699 5700 5702 5704 5705 5706 5706 5707 5707 5708 5709 5709 5709 5709 5708 5708 5708 5708 5708 5707 5705 5704 5702 5700 5698 5696 5694 5692 5690 5687 5685 5682 5679 5677 5674 5671 5668 5665 5663 5660
5685 5686 5688 5689 5691 5692 5693 5694 5695 5695 5696 5696 5696 5697 5697 5697 5697 5696 5696 5696 5695 5695 5694 5693 5691 5689 5687 5685 5683 5681 5678 5676 5673 5670 5667 5664 5661 5658 5655 5652 5649 5645 5643
5676 5677 5678 5680 5681 5682 5683 5683 5684 5684 5685 5685 5685 5685 5685 5685 5684 5684 5683 5683 5682 5681 5681 5679 5677 5675 5673 5671 5668 5666 5663 5661 5658 5654 5651 5648 5644 5641 5638 5634 5631 5628 5624
5667 5668 5669 5670 5671 5671 5672 5672 5672 5673 5673 5673 5673 5673 5672 5672 5672 5671 5670 5669 5669 5668 5667 5666 5663 5661 5659 5656 5654 5651 5648 5645 5642 5638 5635 5631 5627 5624 5620 5616 5612 5609 5605
5657 5658 5658 5659 5659 5660 5660 5660 5660 5661 5661 5661 5660 5660 5659 5659 5659 5658 5657 5656 5655 5653 5652 5651 5649 5646 5644 5641 5638 5636 5633 5629 5625 5622 5618 5614 5611 5606 5602 5598 5593 5589 5585
5647 5647 5647 5648 5648 5648 5648 5648 5648 5648 5649 5648 5648 5647 5646 5646 5645 5644 5642 5641 5640 5638 5637 5635 5633 5631 5628 5625 5622 5620 5617 5613 5610 5605 5601 5597 5593 5589 5584 5579 5575 5570 5565
5635 5636 5636 5636 5636 5636 5636 5636 5636 5636 5636 5635 5635 5634 5633 5632 5630 5629 5628 5627 5625 5623 5622 5620 5618 5615 5613 5609 5606 5603 5600 5597 5594 5588 5585 5581 5576 5572 5566 5561 5555 5550 5545
5624 5624 5624 5624 5624 5623 5623 5623 5622 5623 5622 5622 5621 5620 5619 5618 5616 5615 5613 5612 5610 5608 5606 5604 5602 5599 5596 5593 5589 5586 5583 5581 5578 5573 5568 5565 5558 5554 5548 5542 5536 5530 5525
5612 5611 5611 5611 5611 5611 5610 5610 5609 5609 5609 5608 5607 5606 5605 5603 5602 5600 5599 5597 5595 5592 5591 5589 5587 5584 5580 5577 5574 5571 5567 5563 5560 5555 5550 5547 5541 5536 5530 5524 5518 5512 5507
5600 5599 5599 5599 5598 5598 5597 5596 5596 5595 5595 5594 5593 5592 5590 5589 5587 5586 5584 5583 5580 5578 5575 5573 5571 5568 5564 5560 5557 5554 5550 5547 5544 5538 5531 5528 5524 5519 5513 5507 5500 5495 5489
5588 5587 5587 5586 5586 5585 5583 5583 5582 5581 5581 5580 5579 5577 5576 5575 5573 5571 5570 5568 5566 5563 5560 5558 5555 5552 5548 5544 5540 5536 5533 5529 5526 5523 5514 5509 5505 5501 5497 5491 5484 5478 5473
5576 5575 5574 5573 5572 5571 5570 5569 5568 5567 5567 5566 5565 5563 5562 5560 5558 5556 5554 5553 5551 5549 5546 5543 5540 5537 5533 5529 5524 5519 5515 5511 5507 5505 5499 5492 5488 5482 5480 5476 5469 5463 5458